When you browse on this site, cookies collect data to enhance your experience and personalize the content and advertising you see.
Visit our Privacy Policy to learn more. By continuing to use the site, you agree to this use of cookies and data.
EN

Hourly Weather San Juan

Today, 9 July, Thursday

Time Temperature Precipitation Wind Pressure Humidity
00:00 +7°C° 0 mm 2 mps 708 mmHg 58%
01:00 +6°C° 0 mm 2 mps 708 mmHg 60%
02:00 +6°C° 0 mm 1 mps 707 mmHg 63%
03:00 +6°C° 0 mm 1 mps 707 mmHg 66%
04:00 +4°C° 0 mm 0 mps 706 mmHg 69%
05:00 +4°C° 0 mm 0 mps 706 mmHg 69%
06:00 +4°C° 0 mm 0 mps 706 mmHg 69%
07:00 +5°C° 0 mm 0 mps 706 mmHg 64%
08:00 +8°C° 0 mm 1 mps 706 mmHg 56%
09:00 +10°C° 0 mm 1 mps 706 mmHg 48%
10:00 +12°C° 0 mm 2 mps 706 mmHg 41%
11:00 +13°C° 0 mm 2 mps 706 mmHg 36%
12:00 +14°C° 0 mm 3 mps 705 mmHg 32%
13:00 +16°C° 0 mm 3 mps 705 mmHg 27%
14:00 +16°C° 0 mm 3 mps 704 mmHg 27%
15:00 +16°C° 0 mm 3 mps 703 mmHg 26%
16:00 +16°C° 0 mm 2 mps 703 mmHg 26%
17:00 +14°C° 0 mm 3 mps 702 mmHg 27%
18:00 +13°C° 0 mm 3 mps 702 mmHg 29%
19:00 +11°C° 0 mm 3 mps 702 mmHg 30%
20:00 +10°C° 0 mm 2 mps 702 mmHg 34%
21:00 +10°C° 0 mm 2 mps 701 mmHg 38%
22:00 +9°C° 0 mm 2 mps 701 mmHg 41%
23:00 +9°C° 0 mm 1 mps 701 mmHg 43%

Tomorrow, 10 July, Friday

Time Temperature Precipitation Wind Pressure Humidity
00:00 +9°C° 0 mm 1 mps 701 mmHg 44%
01:00 +9°C° 0 mm 1 mps 700 mmHg 46%
02:00 +9°C° 0 mm 1 mps 700 mmHg 45%
03:00 +9°C° 0 mm 1 mps 700 mmHg 45%
04:00 +9°C° 0 mm 1 mps 700 mmHg 44%
05:00 +9°C° 0 mm 1 mps 700 mmHg 43%
06:00 +9°C° 0 mm 1 mps 700 mmHg 42%
07:00 +9°C° 0 mm 1 mps 701 mmHg 41%
08:00 +12°C° 0 mm 1 mps 701 mmHg 36%
09:00 +15°C° 0 mm 1 mps 702 mmHg 30%
10:00 +19°C° 0 mm 1 mps 703 mmHg 24%
11:00 +20°C° 0 mm 1 mps 703 mmHg 23%
12:00 +19°C° 0 mm 2 mps 702 mmHg 22%
13:00 +20°C° 0 mm 2 mps 702 mmHg 20%
14:00 +19°C° 0 mm 4 mps 703 mmHg 24%
15:00 +17°C° 0 mm 5 mps 703 mmHg 27%
16:00 +15°C° 0 mm 6 mps 703 mmHg 30%
17:00 +14°C° 0 mm 5 mps 703 mmHg 33%
18:00 +13°C° 0 mm 5 mps 704 mmHg 36%
19:00 +12°C° 0 mm 4 mps 705 mmHg 39%
20:00 +11°C° 0 mm 4 mps 705 mmHg 42%
21:00 +10°C° 0 mm 4 mps 705 mmHg 45%
22:00 +10°C° 0 mm 3 mps 706 mmHg 48%
23:00 +9°C° 0 mm 3 mps 705 mmHg 53%

Day after tomorrow, 11 July, Saturday

Time Temperature Precipitation Wind Pressure Humidity
00:00 +8°C° 0 mm 2 mps 705 mmHg 58%
01:00 +8°C° 0 mm 1 mps 704 mmHg 64%
02:00 +8°C° 0 mm 1 mps 704 mmHg 68%
03:00 +7°C° 0 mm 1 mps 703 mmHg 72%
04:00 +6°C° 0 mm 1 mps 703 mmHg 76%
05:00 +5°C° 0 mm 0 mps 703 mmHg 77%
06:00 +5°C° 0 mm 0 mps 703 mmHg 78%
07:00 +5°C° 0 mm 0 mps 703 mmHg 79%
08:00 +7°C° 0 mm 0 mps 703 mmHg 69%
09:00 +10°C° 0 mm 1 mps 703 mmHg 60%
10:00 +13°C° 0 mm 1 mps 704 mmHg 50%
11:00 +14°C° 0 mm 1 mps 703 mmHg 46%
12:00 +15°C° 0 mm 2 mps 703 mmHg 43%
13:00 +16°C° 0 mm 2 mps 702 mmHg 39%
14:00 +16°C° 0 mm 2 mps 702 mmHg 38%
15:00 +16°C° 0 mm 2 mps 702 mmHg 38%
16:00 +16°C° 0 mm 2 mps 702 mmHg 38%
17:00 +14°C° 0 mm 1 mps 702 mmHg 41%
18:00 +13°C° 0 mm 1 mps 702 mmHg 45%
19:00 +11°C° 0 mm 1 mps 702 mmHg 49%
20:00 +11°C° 0 mm 1 mps 702 mmHg 50%
21:00 +10°C° 0 mm 1 mps 702 mmHg 51%
22:00 +10°C° 0 mm 1 mps 703 mmHg 52%
23:00 +10°C° 0 mm 1 mps 703 mmHg 54%

12 July, Sunday

Time Temperature Precipitation Wind Pressure Humidity
00:00 +9°C° 0 mm 1 mps 703 mmHg 55%
01:00 +8°C° 0 mm 0 mps 703 mmHg 57%
02:00 +8°C° 0 mm 0 mps 702 mmHg 57%
03:00 +9°C° 0 mm 1 mps 702 mmHg 57%
04:00 +9°C° 0 mm 1 mps 702 mmHg 58%
05:00 +9°C° 0 mm 1 mps 703 mmHg 54%
06:00 +9°C° 0 mm 1 mps 703 mmHg 50%
07:00 +9°C° 0 mm 1 mps 703 mmHg 47%
08:00 +12°C° 0 mm 1 mps 704 mmHg 41%
09:00 +14°C° 0 mm 1 mps 705 mmHg 35%
10:00 +17°C° 0 mm 2 mps 705 mmHg 29%
11:00 +17°C° 0 mm 3 mps 705 mmHg 29%
12:00 +18°C° 0 mm 4 mps 705 mmHg 29%
13:00 +17°C° 0 mm 5 mps 704 mmHg 29%
14:00 +16°C° 0 mm 5 mps 704 mmHg 33%
15:00 +15°C° 0 mm 6 mps 704 mmHg 37%
16:00 +14°C° 0 mm 6 mps 704 mmHg 41%
17:00 +13°C° 0 mm 6 mps 705 mmHg 48%
18:00 +10°C° 0 mm 6 mps 706 mmHg 55%
19:00 +8°C° 0 mm 6 mps 706 mmHg 62%
20:00 +7°C° 0 mm 6 mps 707 mmHg 67%
21:00 +7°C° 0 mm 6 mps 707 mmHg 73%
22:00 +5°C° 0 mm 6 mps 708 mmHg 79%
23:00 +5°C° 0 mm 6 mps 708 mmHg 79%

13 July, Monday

Time Temperature Precipitation Wind Pressure Humidity
00:00 +6°C° 0 mm 5 mps 709 mmHg 78%
01:00 +6°C° 0 mm 5 mps 709 mmHg 78%
02:00 +6°C° 0 mm 4 mps 709 mmHg 78%
03:00 +7°C° 0 mm 3 mps 709 mmHg 77%
04:00 +7°C° 0 mm 3 mps 710 mmHg 77%
05:00 +7°C° 0 mm 2 mps 710 mmHg 76%
06:00 +7°C° 0 mm 2 mps 710 mmHg 76%
07:00 +7°C° 0 mm 2 mps 711 mmHg 75%
08:00 +7°C° 0 mm 2 mps 711 mmHg 73%
09:00 +7°C° 0 mm 2 mps 711 mmHg 70%
10:00 +9°C° 0 mm 1 mps 711 mmHg 68%
11:00 +9°C° 0 mm 1 mps 711 mmHg 64%
12:00 +10°C° 0 mm 1 mps 710 mmHg 61%
13:00 +11°C° 0 mm 1 mps 710 mmHg 57%
14:00 +11°C° 0 mm 1 mps 709 mmHg 56%
15:00 +11°C° 0 mm 1 mps 709 mmHg 54%
16:00 +12°C° 0 mm 1 mps 709 mmHg 53%
17:00 +10°C° 0 mm 1 mps 709 mmHg 58%
18:00 +9°C° 0 mm 1 mps 709 mmHg 64%
19:00 +8°C° 0 mm 1 mps 709 mmHg 69%
20:00 +7°C° 0 mm 1 mps 709 mmHg 71%
21:00 +7°C° 0 mm 1 mps 709 mmHg 73%
22:00 +6°C° 0 mm 1 mps 709 mmHg 74%
23:00 +6°C° 0 mm 1 mps 709 mmHg 75%

14 July, Tuesday

Time Temperature Precipitation Wind Pressure Humidity
00:00 +6°C° 0 mm 1 mps 708 mmHg 75%
01:00 +6°C° 0 mm 1 mps 708 mmHg 75%
02:00 +6°C° 0 mm 1 mps 708 mmHg 75%
03:00 +5°C° 0 mm 1 mps 707 mmHg 76%
04:00 +5°C° 0 mm 1 mps 707 mmHg 77%
05:00 +5°C° 0 mm 1 mps 707 mmHg 76%
06:00 +5°C° 0 mm 1 mps 707 mmHg 76%
07:00 +5°C° 0 mm 1 mps 707 mmHg 76%
08:00 +8°C° 0 mm 1 mps 707 mmHg 66%
09:00 +9°C° 0 mm 2 mps 707 mmHg 57%
10:00 +13°C° 0 mm 2 mps 707 mmHg 47%
11:00 +14°C° 0 mm 2 mps 707 mmHg 44%
12:00 +15°C° 0 mm 2 mps 706 mmHg 40%
13:00 +16°C° 0 mm 2 mps 705 mmHg 37%
14:00 +16°C° 0 mm 2 mps 705 mmHg 36%
15:00 +16°C° 0 mm 2 mps 705 mmHg 36%
16:00 +16°C° 0 mm 2 mps 704 mmHg 36%
17:00 +14°C° 0 mm 1 mps 704 mmHg 41%
18:00 +12°C° 0 mm 1 mps 704 mmHg 47%
19:00 +10°C° 0 mm 1 mps 704 mmHg 53%
20:00 +10°C° 0 mm 1 mps 704 mmHg 53%
21:00 +9°C° 0 mm 1 mps 704 mmHg 54%
22:00 +9°C° 0 mm 1 mps 704 mmHg 55%
23:00 +9°C° 0 mm 1 mps 704 mmHg 56%
Show more